Regional Weather Roundup
Issued by NWS Austin/San Antonio, TX

Home | Current Version | Previous Version | Text Only | Print | Product List | Glossary On
Versions: 1 2 3 4 5 6 7 8 9 10 11 12 13 14 15 16 17 18 19 20 21 22 23 24 25 26 27 28 29 30 31 32 33 34 35 36 37 38 39 40 41 42 43 44 45 46 47 48 49 50
000
ASUS44 KEWX 210602
RWREWX
SOUTH TEXAS REGIONAL WEATHER ROUNDUP
NATIONAL WEATHER SERVICE AUSTIN/SAN ANTONIO TX
100 AM CDT WED AUG 21 2019

NOTE: "FAIR" INDICATED FEW OR NO CLOUDS BELOW 12,000 FEET WITH NO
SIGNIFICANT WEATHER AND/OR OBSTRUCTIONS TO VISIBILITY.

* - THESE STATIONS ARE NOT NWS OR FAA STATIONS...AND ARE NOT SUBJECT
    TO NWS AND FAA QUALITY CONTROL.

TXZ171-172-183>190-210700-
TEXAS HILL COUNTRY AND EDWARDS PLATEAU

CITY           SKY/WX    TMP DP  RH WIND       PRES   REMARKS
JUNCTION       CLEAR     84  61  45 S12       30.04S
6HR MIN TEMP:  82; 6HR MAX TEMP:  97;

*LLANO         CLEAR     82  66  57 SE3       30.05S
BURNET         CLEAR     83  67  58 S7        30.06R
6HR MIN TEMP:  83; 6HR MAX TEMP:  96;

*HORSESHOE BAY CLEAR     82  66  57 S7        30.03S
*KERRVILLE     CLEAR     79  64  60 SE7       30.06S
6HR MIN TEMP:  79; 6HR MAX TEMP:  94;

*FREDERICKSBRG CLEAR     80  62  55 CALM      30.06S
*ROCKSPRINGS   CLEAR     81  63  54 SE10      30.12S
*BOERNE        CLEAR     79  68  69 S8        30.07R
*CASTROVILLE   CLEAR     81  68  64 SE9       30.04R
HONDO          CLEAR     82  69  64 SE14      30.02R
6HR MIN TEMP:  81; 6HR MAX TEMP:  97;

*UVALDE        CLEAR     83  67  59 SE10      30.02R
6HR MIN TEMP:  83; 6HR MAX TEMP:  97;

DEL RIO        CLEAR     87  63  44 E12       29.95S
6HR MIN TEMP:  86; 6HR MAX TEMP: 100;

LAUGHLIN AFB   CLEAR     85  65  51 SE13      29.97R
6HR MIN TEMP:  84; 6HR MAX TEMP:  98;

SPOFFORD       CLEAR     86  70  59 SE15      29.92S HX  90
6HR MIN TEMP:  85; 6HR MAX TEMP:  98;

*EAGLE PASS    CLEAR     88  68  51 SE10G22   29.97S HX  91
CARRIZO SPRGS  CLEAR     84  68  58 SE14G21   29.97R
$$

TXZ173-191>194-202-209-217>225-228-210700-
CENTRAL AND SOUTH CENTRAL TEXAS

CITY           SKY/WX    TMP DP  RH WIND       PRES   REMARKS
GEORGETOWN     CLEAR     84  70  62 S6        30.04R
6HR MIN TEMP:  84; 6HR MAX TEMP:  97;

AUSTIN/BERGSTM PTCLDY    82  71  69 SE6       30.02R
6HR MIN TEMP:  80; 6HR MAX TEMP:  95;

AUSTIN/MABRY   CLEAR     84  70  62 S5        30.03R
6HR MIN TEMP:  84; 6HR MAX TEMP:  98;

*AUSTIN/EXEC   PTCLDY    79  72  78 S5        30.03R
*LAGO VISTA    CLEAR     81  69  67 S6        30.05S
6HR MIN TEMP:  81; 6HR MAX TEMP:  94;

SAN MARCOS     CLEAR     81  73  76 S7        30.03R
6HR MIN TEMP:  81; 6HR MAX TEMP:  92;

NEW BRAUNFELS  CLEAR     81  72  74 SW8       30.01R
6HR MIN TEMP:  81; 6HR MAX TEMP:  97;

RANDOLPH AFB   CLEAR     80  73  77 S8        30.03R
6HR MIN TEMP:  80; 6HR MAX TEMP:  97;

SEGUIN         CLEAR     79  73  82 S8        30.05R
6HR MIN TEMP:  79; 6HR MAX TEMP:  92; 6HR PCP: TRACE;

KELLY FIELD    CLEAR     81  71  70 SE9       30.01R
6HR MIN TEMP:  81; 6HR MAX TEMP:  98;

SAN ANTONIO    CLEAR     81  71  71 SE8       30.03R
6HR MIN TEMP:  81; 6HR MAX TEMP:  96;

STINSON FIELD  CLEAR     82  71  69 S8        30.00R
6HR MIN TEMP:  82; 6HR MAX TEMP:  99;

PLEASANTON     CLEAR     80  71  74 S7        30.01S
6HR MIN TEMP:  80; 6HR MAX TEMP:  98;

*LA GRANGE     CLEAR     80  76  86 CALM      30.00R
6HR MIN TEMP:  80; 6HR MAX TEMP:  93;

*GIDDINGS      CLEAR     84  75  75 CALM      30.03R HX  92
6HR MIN TEMP:  84; 6HR MAX TEMP:  96;

*GONZALES      CLEAR     81  75  81 S5        30.01R
6HR MIN TEMP:  81; 6HR MAX TEMP:  92;

$$

TXZ163>164-176>182-195>201-210>213-226-227-235-210700-
SOUTHEAST TEXAS

CITY           SKY/WX    TMP DP  RH WIND       PRES   REMARKS
COLLEGE STN    CLEAR     81  74  79 SE7       30.03R
6HR MIN TEMP:  80; 6HR MAX TEMP:  90;

*BRYAN         CLEAR     79  79  98 E5        30.05R
6HR MIN TEMP:  79; 6HR MAX TEMP:  92;

*CALDWELL      CLEAR     79  73  81 SE5       30.03S
6HR MIN TEMP:  79; 6HR MAX TEMP:  93;

*CROCKETT      CLEAR     75  73  94 CALM      30.07R
*BRENHAM       CLEAR     80  74  82 S3        30.03S
6HR MIN TEMP:  80; 6HR MAX TEMP:  89;

HUNTSVILLE     CLEAR     76  73  91 CALM      30.04S
6HR MIN TEMP:  76; 6HR MAX TEMP:  84;

CONROE         CLEAR     76  74  93 CALM      30.04R
6HR MIN TEMP:  76; 6HR MAX TEMP:  89;

HOUSTON BUSH   MOCLDY    79  75  87 CALM      30.02S
6HR MIN TEMP:  79; 6HR MAX TEMP:  89;

HOUSTON HOBBY  MOCLDY    81  76  84 E3        30.02R
6HR MIN TEMP:  81; 6HR MAX TEMP:  87;

*HOUSTON SW AP FAIR      76  76  99 CALM      30.02F
6HR MIN TEMP:  76; 6HR MAX TEMP:  86;

PEARLAND       FAIR      80  76  87 CALM      30.03S
6HR MIN TEMP:  80; 6HR MAX TEMP:  87;

HOUSTON HOOKS  FAIR      80  74  81 CALM      30.03R
6HR MIN TEMP:  80; 6HR MAX TEMP:  87;

ELLINGTON FLD  NOT AVBL
SUGAR LAND     FAIR      79  78  97 SE5       30.01S
6HR MIN TEMP:  79; 6HR MAX TEMP:  88;

*HOUSTON EXEC  FAIR      79  77  94 CALM      30.03S
*CLEVELAND MUN FAIR      76  76 100 CALM      30.04S
6HR MIN TEMP:  76; 6HR MAX TEMP:  84;

*WHARTON       CLEAR     77  73  90 CALM      30.02S
6HR MIN TEMP:  76; 6HR MAX TEMP:  86;

*COLUMBUS      FAIR      78  70  77 SE3       30.03S
6HR MIN TEMP:  78; 6HR MAX TEMP:  88;

*EAGLE LAKE    CLEAR     79  76  92 CALM      30.02S
6HR MIN TEMP:  79; 6HR MAX TEMP:  90;

$$

TXZ214>216-236>238-210700-
THE UPPER TEXAS COAST

CITY           SKY/WX    TMP DP  RH WIND       PRES   REMARKS
*ORANGE        FAIR      78  78 100 CALM      30.06R
6HR MIN TEMP:  78; 6HR MAX TEMP:  87;

PORT ARTHUR    FAIR      78  76  93 CALM      30.03S
6HR MIN TEMP:  78; 6HR MAX TEMP:  86; 6HR PCP:  0.01;

GALVESTON      FAIR      85  78  80 S9        30.02F HX  96
6HR MIN TEMP:  85; 6HR MAX TEMP:  87;

ANGLETON       FAIR      78  74  87 CALM      30.02S
6HR MIN TEMP:  76; 6HR MAX TEMP:  85;

*BAY CITY      CLEAR     80  77  92 CALM      30.01S
PALACIOS       CLEAR     86  75  69 S9        30.00R HX  95
6HR MIN TEMP:  86; 6HR MAX TEMP:  90;

$$

TXZ229>234-239>247-210700-
TEXAS COASTAL BEND AND RIO GRANDE PLAINS

CITY           SKY/WX    TMP DP  RH WIND       PRES   REMARKS
VICTORIA       CLEAR     79  74  84 SE5       30.01R
6HR MIN TEMP:  79; 6HR MAX TEMP:  92;

*BEEVILLE      NOT AVBL
ROCKPORT       CLEAR     84  75  74 S8        29.98S HX  92
6HR MIN TEMP:  83; 6HR MAX TEMP:  87;

*PORT ARANSAS  CLEAR     84  78  81 SE9       30.00S HX  95
6HR MIN TEMP:  84; 6HR MAX TEMP:  87;

*PORT LAVACA   CLEAR     81  76  86 S5        30.00S
6HR MIN TEMP:  80; 6HR MAX TEMP:  91;

*INGLESIDE     NOT AVBL
CORPUS CHRISTI MOCLDY    81  76  84 S6        29.99S
6HR MIN TEMP:  81; 6HR MAX TEMP:  90;

CORPUS NAS     CLEAR     83  79  88 S12       29.98S HX  94
6HR MIN TEMP:  83; 6HR MAX TEMP:  88;

*ROBSTOWN      CLEAR     82  74  78 SE6       29.99S
ALICE          CLEAR     79  74  84 SE3       29.99S
6HR MIN TEMP:  78; 6HR MAX TEMP:  93;

KINGSVILLE NAS CLEAR     81  76  84 SE6       29.99S
6HR MIN TEMP:  81; 6HR MAX TEMP:  90;

COTULLA        CLEAR     84  71  65 SE15      29.99R
6HR MIN TEMP:  84; 6HR MAX TEMP: 102;

LAREDO         CLEAR     84  72  67 SE14      29.97R
6HR MIN TEMP:  84; 6HR MAX TEMP: 101;

$$

TXZ248>255-210700-
DEEP SOUTH TEXAS

CITY           SKY/WX    TMP DP  RH WIND       PRES   REMARKS
BROWNSVILLE    FAIR      83  79  88 SE7       29.97S HX  94
6HR MIN T


USA.gov is the U.S. government's official web portal to all federal, state and local government web resources and services.